EZY64JW EGCC-EKCH

Flight info

Callsign EZY64JW
Flight time 1h 28m
Altitude 37000
Route DESIG L603 LAMIX UT29 LIBSO UL975 ROPAL DCT LESRA DCT TESPI
Aircraft A320/M-SDE2E3FGHIJ1RWXYZ/LB1

Departure

Time 2026-05-04 09:25
Airport Manchester Airport (EGCC)

Arrival

Time 2026-05-04 10:54
Airport Copenhagen Kastrup Airport (EKCH)
Time Latitude Longitude Altitude Speed Heading
2026-05-04 08:43 53.36644 -2.28273 255 ft 0 kts 315°
2026-05-04 09:12 53.36630 -2.28248 255 ft 4 kts 315°
2026-05-04 09:14 53.36532 -2.28072 255 ft 0 kts 315°
2026-05-04 09:17 53.36322 -2.28435 255 ft 10 kts 139°
2026-05-04 09:18 53.36268 -2.28340 255 ft 11 kts 135°
2026-05-04 09:18 53.36215 -2.28252 255 ft 10 kts 135°
2026-05-04 09:18 53.36156 -2.28151 255 ft 15 kts 134°
2026-05-04 09:18 53.36070 -2.28016 255 ft 18 kts 139°
2026-05-04 09:19 53.35970 -2.27874 255 ft 19 kts 146°
2026-05-04 09:19 53.35833 -2.27859 252 ft 22 kts 185°
2026-05-04 09:19 53.35672 -2.27886 243 ft 23 kts 185°
2026-05-04 09:19 53.35579 -2.27995 238 ft 17 kts 231°
2026-05-04 09:20 53.35471 -2.28141 234 ft 23 kts 201°
2026-05-04 09:20 53.35306 -2.28211 234 ft 27 kts 206°
2026-05-04 09:20 53.35169 -2.28428 228 ft 27 kts 231°
2026-05-04 09:20 53.35075 -2.28625 229 ft 20 kts 231°
2026-05-04 09:21 53.35012 -2.28745 227 ft 21 kts 226°
2026-05-04 09:21 53.34868 -2.28998 220 ft 26 kts 227°
2026-05-04 09:21 53.34767 -2.29195 214 ft 18 kts 231°
2026-05-04 09:21 53.34693 -2.29316 212 ft 10 kts 208°
2026-05-04 09:22 53.34637 -2.29339 212 ft 6 kts 184°
2026-05-04 09:22 53.34592 -2.29333 213 ft 7 kts 167°
2026-05-04 09:22 53.34547 -2.29283 213 ft 7 kts 129°
2026-05-04 09:22 53.34547 -2.29209 215 ft 7 kts 58°
2026-05-04 09:23 53.34560 -2.29181 216 ft 1 kts 51°
2026-05-04 09:23 53.34636 -2.29023 216 ft 50 kts 51°
2026-05-04 09:23 53.34995 -2.28280 232 ft 113 kts 51°
2026-05-04 09:23 53.35587 -2.27058 278 ft 157 kts 51°
2026-05-04 09:25 53.41672 -2.14197 4022 ft 256 kts 51°
2026-05-04 09:25 53.42788 -2.11826 4753 ft 262 kts 51°
2026-05-04 09:26 53.43914 -2.09432 4972 ft 261 kts 51°
2026-05-04 09:26 53.45035 -2.07041 5024 ft 261 kts 52°
2026-05-04 09:26 53.46162 -2.04638 5030 ft 263 kts 51°
2026-05-04 09:26 53.47297 -2.02221 5031 ft 264 kts 51°
2026-05-04 09:27 53.48421 -1.99829 5033 ft 265 kts 51°
2026-05-04 09:27 53.49567 -1.97404 5031 ft 265 kts 51°
2026-05-04 09:27 53.50710 -1.94989 5031 ft 264 kts 52°
2026-05-04 09:27 53.51630 -1.92321 5031 ft 265 kts 68°
2026-05-04 09:28 53.52088 -1.89334 5037 ft 266 kts 83°
2026-05-04 09:28 53.52066 -1.86196 5747 ft 270 kts 98°
2026-05-04 09:28 53.51624 -1.83120 6650 ft 273 kts 106°
2026-05-04 09:28 53.51274 -1.81078 7181 ft 276 kts 106°
2026-05-04 09:29 53.50735 -1.77955 7976 ft 281 kts 106°
2026-05-04 09:29 53.50178 -1.74772 8755 ft 287 kts 107°
2026-05-04 09:29 53.49605 -1.71523 9523 ft 292 kts 107°
2026-05-04 09:29 53.48828 -1.67144 10430 ft 304 kts 107°
2026-05-04 09:30 53.48201 -1.63614 10681 ft 327 kts 107°
2026-05-04 09:30 53.47757 -1.61114 11021 ft 334 kts 107°
2026-05-04 09:30 53.47095 -1.57389 11685 ft 340 kts 107°
2026-05-04 09:30 53.46415 -1.53573 12412 ft 344 kts 107°
2026-05-04 09:31 53.45723 -1.49710 13119 ft 348 kts 107°
2026-05-04 09:31 53.45025 -1.45817 13810 ft 351 kts 107°
2026-05-04 09:31 53.44315 -1.41861 14451 ft 355 kts 107°
2026-05-04 09:31 53.43368 -1.36589 15284 ft 359 kts 107°
2026-05-04 09:32 53.42877 -1.33878 15712 ft 360 kts 107°
2026-05-04 09:32 53.42154 -1.29899 16337 ft 363 kts 107°
2026-05-04 09:34 53.36855 -1.00874 20401 ft 380 kts 108°
2026-05-04 09:34 53.36073 -0.96626 20871 ft 384 kts 108°
2026-05-04 09:34 53.35281 -0.92335 21370 ft 387 kts 108°
2026-05-04 09:34 53.34484 -0.88017 21893 ft 389 kts 108°
2026-05-04 09:35 53.33687 -0.83731 22413 ft 391 kts 108°
2026-05-04 09:35 53.32876 -0.79376 22920 ft 393 kts 108°
2026-05-04 09:35 53.32124 -0.74977 23409 ft 395 kts 101°
2026-05-04 09:35 53.31813 -0.70407 23849 ft 397 kts 90°
2026-05-04 09:37 53.38643 -0.40275 26757 ft 404 kts 65°
2026-05-04 09:37 53.39830 -0.36007 27152 ft 405 kts 65°
2026-05-04 09:38 53.41018 -0.31722 27547 ft 406 kts 64°
2026-05-04 09:38 53.42214 -0.27438 27936 ft 407 kts 64°
2026-05-04 09:38 53.43424 -0.23133 28320 ft 408 kts 64°
2026-05-04 09:38 53.44638 -0.18825 28723 ft 409 kts 64°
2026-05-04 09:39 53.45854 -0.14496 29091 ft 411 kts 64°
2026-05-04 09:39 53.47071 -0.10154 29467 ft 412 kts 64°
2026-05-04 09:39 53.48285 -0.05804 29828 ft 413 kts 64°
2026-05-04 09:39 53.49484 -0.01486 30182 ft 414 kts 64°
2026-05-04 09:40 53.50708 0.02928 30330 ft 420 kts 64°
2026-05-04 09:40 53.52089 0.07272 30502 ft 423 kts 57°
2026-05-04 09:40 53.53866 0.11221 30718 ft 426 kts 47°
2026-05-04 09:40 53.56001 0.14695 30945 ft 428 kts 42°
2026-05-04 09:41 53.58221 0.18044 31198 ft 430 kts 42°
2026-05-04 09:42 53.73663 0.41729 33397 ft 430 kts 43°
2026-05-04 09:43 53.75864 0.45121 33798 ft 427 kts 43°
2026-05-04 09:43 53.78048 0.48497 34178 ft 425 kts 43°
2026-05-04 09:43 53.80231 0.51876 34430 ft 425 kts 43°
2026-05-04 09:43 53.82417 0.55259 34602 ft 427 kts 42°
2026-05-04 09:44 53.84613 0.58662 34789 ft 429 kts 42°
2026-05-04 09:44 53.86789 0.62043 34944 ft 431 kts 43°
2026-05-04 09:44 53.88856 0.65727 35152 ft 432 kts 51°
2026-05-04 09:46 54.00598 0.95733 36434 ft 438 kts 54°
2026-05-04 09:46 54.02314 0.99935 36624 ft 438 kts 54°
2026-05-04 09:46 54.04049 1.04205 36753 ft 440 kts 54°
2026-05-04 09:47 54.05784 1.08512 36876 ft 442 kts 55°
2026-05-04 09:47 54.07513 1.12835 37031 ft 443 kts 55°
2026-05-04 09:49 54.21444 1.47995 37075 ft 449 kts 55°
2026-05-04 09:51 54.33550 1.78963 37061 ft 447 kts 56°
2026-05-04 09:51 54.36968 1.87775 37064 ft 447 kts 56°
2026-05-04 09:52 54.40409 1.96666 37060 ft 447 kts 56°
2026-05-04 09:52 54.43846 2.05578 37057 ft 447 kts 56°
2026-05-04 09:53 54.47276 2.14493 37053 ft 447 kts 56°
2026-05-04 09:53 54.50676 2.23372 37058 ft 448 kts 56°
2026-05-04 09:54 54.54089 2.32342 37068 ft 448 kts 56°
2026-05-04 09:54 54.57500 2.41319 37061 ft 448 kts 56°
2026-05-04 09:55 54.60905 2.50327 37058 ft 448 kts 56°
2026-05-04 09:55 54.64284 2.59289 37062 ft 448 kts 56°
2026-05-04 09:56 54.67675 2.68324 37064 ft 448 kts 56°
2026-05-04 09:56 54.71063 2.77391 37056 ft 449 kts 56°
2026-05-04 09:57 54.74454 2.86483 37076 ft 450 kts 56°
2026-05-04 09:57 54.77819 2.95531 37072 ft 450 kts 56°
2026-05-04 09:58 54.81195 3.04652 37073 ft 449 kts 56°
2026-05-04 09:58 54.84562 3.13774 37070 ft 449 kts 56°
2026-05-04 10:00 54.97967 3.50457 37061 ft 451 kts 56°
2026-05-04 10:04 55.19247 4.17263 37026 ft 455 kts 66°
2026-05-04 10:04 55.21678 4.27485 37047 ft 455 kts 66°
2026-05-04 10:05 55.24094 4.37725 37048 ft 455 kts 66°
2026-05-04 10:05 55.26498 4.47984 37041 ft 456 kts 66°
2026-05-04 10:06 55.28897 4.58223 37039 ft 457 kts 66°
2026-05-04 10:06 55.31307 4.68547 37039 ft 457 kts 67°
2026-05-04 10:08 55.39154 5.05065 37049 ft 459 kts 78°
2026-05-04 10:08 55.40414 5.16072 37050 ft 459 kts 78°
2026-05-04 10:09 55.41684 5.27086 37067 ft 459 kts 78°
2026-05-04 10:09 55.42947 5.38113 37068 ft 460 kts 78°
2026-05-04 10:10 55.44197 5.49167 37067 ft 460 kts 78°
2026-05-04 10:10 55.45419 5.60146 37051 ft 460 kts 78°
2026-05-04 10:11 55.46637 5.71207 37041 ft 461 kts 78°
2026-05-04 10:11 55.47863 5.82313 37038 ft 462 kts 78°
2026-05-04 10:12 55.49082 5.93435 37038 ft 462 kts 78°
2026-05-04 10:12 55.50278 6.04490 37037 ft 462 kts 79°
2026-05-04 10:13 55.51470 6.15633 37037 ft 463 kts 79°
2026-05-04 10:13 55.52659 6.26812 37033 ft 464 kts 79°
2026-05-04 10:14 55.53828 6.38003 37029 ft 464 kts 79°
2026-05-04 10:16 55.58436 6.82941 37019 ft 467 kts 80°
2026-05-04 10:16 55.59559 6.94171 37033 ft 468 kts 80°
2026-05-04 10:17 55.60681 7.05495 37023 ft 468 kts 80°
2026-05-04 10:19 55.65074 7.50912 37022 ft 470 kts 81°
2026-05-04 10:19 55.66152 7.62335 37007 ft 471 kts 81°
2026-05-04 10:20 55.67213 7.73787 37013 ft 471 kts 81°
2026-05-04 10:20 55.68266 7.85178 37020 ft 471 kts 81°
2026-05-04 10:21 55.69317 7.96678 37013 ft 474 kts 81°
2026-05-04 10:21 55.70371 8.08241 37013 ft 475 kts 81°
2026-05-04 10:22 55.71920 8.25586 37006 ft 475 kts 81°
2026-05-04 10:23 55.72937 8.37092 36890 ft 476 kts 81°
2026-05-04 10:23 55.73444 8.42883 36635 ft 475 kts 82°
2026-05-04 10:25 55.76880 8.83355 34870 ft 468 kts 82°
2026-05-04 10:25 55.77350 8.88980 34634 ft 466 kts 82°
2026-05-04 10:25 55.77820 8.94657 34399 ft 464 kts 82°
2026-05-04 10:25 55.78284 9.00313 34165 ft 461 kts 82°
2026-05-04 10:26 55.78746 9.05935 33908 ft 460 kts 82°
2026-05-04 10:26 55.79205 9.11556 33628 ft 458 kts 82°
2026-05-04 10:26 55.79658 9.17146 33368 ft 456 kts 82°
2026-05-04 10:26 55.80106 9.22709 33095 ft 455 kts 82°
2026-05-04 10:27 55.80543 9.28198 32822 ft 453 kts 82°
2026-05-04 10:27 55.80979 9.33724 32559 ft 451 kts 83°
2026-05-04 10:27 55.81412 9.39235 32281 ft 449 kts 83°
2026-05-04 10:27 55.81842 9.44725 32020 ft 448 kts 83°
2026-05-04 10:28 55.82272 9.50201 31758 ft 446 kts 83°
2026-05-04 10:28 55.82697 9.55654 31502 ft 444 kts 83°
2026-05-04 10:28 55.83116 9.61085 31247 ft 443 kts 83°
2026-05-04 10:28 55.83529 9.66516 30993 ft 442 kts 83°
2026-05-04 10:29 55.83933 9.71858 30751 ft 441 kts 83°
2026-05-04 10:29 55.84341 9.77267 30498 ft 440 kts 83°
2026-05-04 10:29 55.84749 9.82651 30245 ft 439 kts 83°
2026-05-04 10:29 55.85152 9.88020 30009 ft 437 kts 83°
2026-05-04 10:30 55.85552 9.93374 29722 ft 435 kts 83°
2026-05-04 10:30 55.85950 9.98695 29429 ft 434 kts 83°
2026-05-04 10:30 55.86342 10.04010 29141 ft 432 kts 83°
2026-05-04 10:30 55.86727 10.09307 28862 ft 429 kts 83°
2026-05-04 10:31 55.87099 10.14463 28451 ft 424 kts 83°
2026-05-04 10:31 55.87472 10.19655 27979 ft 421 kts 83°
2026-05-04 10:32 55.89590 10.50146 25212 ft 408 kts 89°
2026-05-04 10:33 55.89513 10.55107 24779 ft 404 kts 100°
2026-05-04 10:33 55.89007 10.60007 24325 ft 401 kts 106°
2026-05-04 10:33 55.88411 10.64845 23880 ft 399 kts 106°
2026-05-04 10:33 55.87823 10.69674 23410 ft 398 kts 106°
2026-05-04 10:34 55.87243 10.74466 22934 ft 395 kts 106°
2026-05-04 10:34 55.86666 10.79229 22502 ft 391 kts 106°
2026-05-04 10:34 55.86091 10.83937 22069 ft 388 kts 106°
2026-05-04 10:34 55.85515 10.88614 21636 ft 386 kts 106°
2026-05-04 10:35 55.84939 10.93270 21211 ft 384 kts 106°
2026-05-04 10:35 55.84334 10.97814 20789 ft 381 kts 108°
2026-05-04 10:35 55.83677 11.02356 20379 ft 378 kts 108°
2026-05-04 10:35 55.82994 11.06872 19957 ft 376 kts 109°
2026-05-04 10:36 55.82308 11.11345 19545 ft 375 kts 109°
2026-05-04 10:36 55.81627 11.15805 19132 ft 373 kts 108°
2026-05-04 10:36 55.80952 11.20256 18725 ft 372 kts 108°
2026-05-04 10:36 55.80283 11.24696 18324 ft 371 kts 108°
2026-05-04 10:37 55.79621 11.29122 17883 ft 370 kts 108°
2026-05-04 10:37 55.78970 11.33467 17488 ft 367 kts 108°
2026-05-04 10:37 55.78314 11.37837 17093 ft 365 kts 108°
2026-05-04 10:37 55.77662 11.42188 16703 ft 363 kts 107°
2026-05-04 10:39 55.76046 11.68371 14740 ft 350 kts 97°
2026-05-04 10:39 55.75802 11.72605 14404 ft 347 kts 97°
2026-05-04 10:39 55.75555 11.76841 13841 ft 344 kts 97°
2026-05-04 10:40 55.75311 11.81028 13327 ft 337 kts 97°
2026-05-04 10:40 55.75073 11.85111 12957 ft 326 kts 97°
2026-05-04 10:40 55.74841 11.89086 12584 ft 327 kts 97°
2026-05-04 10:40 55.74603 11.93121 12215 ft 328 kts 97°
2026-05-04 10:41 55.74364 11.97135 11839 ft 327 kts 97°
2026-05-04 10:41 55.74127 12.01100 11470 ft 327 kts 97°
2026-05-04 10:41 55.73886 12.05111 11091 ft 326 kts 97°
2026-05-04 10:41 55.73644 12.09107 10742 ft 325 kts 97°
2026-05-04 10:42 55.73402 12.13073 10389 ft 324 kts 97°
2026-05-04 10:42 55.73161 12.17026 10060 ft 320 kts 97°
2026-05-04 10:42 55.72922 12.20916 9584 ft 314 kts 97°
2026-05-04 10:42 55.72686 12.24750 9199 ft 312 kts 97°
2026-05-04 10:43 55.72494 12.28574 8837 ft 310 kts 89°
2026-05-04 10:44 55.77648 12.52721 6295 ft 292 kts 65°
2026-05-04 10:45 55.78409 12.56049 5922 ft 290 kts 65°
2026-05-04 10:45 55.79162 12.59356 5507 ft 288 kts 65°
2026-05-04 10:45 55.79905 12.62652 5121 ft 286 kts 65°
2026-05-04 10:45 55.80637 12.65911 4741 ft 283 kts 65°
2026-05-04 10:46 55.81365 12.69158 4350 ft 282 kts 65°
2026-05-04 10:46 55.82084 12.72381 3953 ft 280 kts 65°
2026-05-04 10:46 55.82791 12.75556 3536 ft 279 kts 65°
2026-05-04 10:46 55.83346 12.78849 3139 ft 280 kts 84°
2026-05-04 10:47 55.83070 12.82191 2973 ft 269 kts 110°
2026-05-04 10:47 55.82373 12.85195 2842 ft 257 kts 115°
2026-05-04 10:47 55.81536 12.87909 2720 ft 245 kts 134°
2026-05-04 10:47 55.80222 12.89650 2517 ft 231 kts 162°
2026-05-04 10:49 55.72577 12.82390 2027 ft 147 kts 228°
2026-05-04 10:49 55.71826 12.81214 2029 ft 142 kts 227°
2026-05-04 10:50 55.71089 12.80060 2030 ft 141 kts 228°
2026-05-04 10:51 55.66000 12.72128 953 ft 138 kts 229°
2026-05-04 10:52 55.65279 12.71001 789 ft 140 kts 225°
2026-05-04 10:52 55.64546 12.69860 584 ft 140 kts 226°
2026-05-04 10:52 55.63821 12.68737 414 ft 138 kts 224°
2026-05-04 10:54 55.61750 12.64808 24 ft 12 kts 339°
2026-05-04 10:54 55.61839 12.64789 24 ft 13 kts
2026-05-04 10:56 55.62079 12.65028 24 ft 9 kts 33°
2026-05-04 10:56 55.62127 12.65085 25 ft 8 kts 34°
2026-05-04 10:56 55.62171 12.65135 24 ft 7 kts 31°
2026-05-04 10:57 55.62211 12.65178 25 ft 6 kts 30°
2026-05-04 10:57 55.62252 12.65196 24 ft 7 kts
2026-05-04 10:57 55.62313 12.65203 25 ft 11 kts
2026-05-04 10:57 55.62399 12.65202 25 ft 14 kts
2026-05-04 10:58 55.62441 12.65320 24 ft 12 kts 87°
2026-05-04 10:58 55.62443 12.65454 24 ft 9 kts 89°
2026-05-04 10:58 55.62470 12.65534 24 ft 7 kts 24°
2026-05-04 10:58 55.62512 12.65567 24 ft 6 kts 23°
2026-05-04 10:59 55.62520 12.65573 24 ft 0 kts 23°